Find Starlink 4125

NORAD ID: 53244 Int'l Des: 2022-086 Owner: SPXS Country: US Constellation: starlink operational
LEOCIRCULAR

Live Position

Loading 3D Globe...

About Starlink 4125

Description loading...

Upcoming Passes

Passes for default location (London). Set your location on the main map for personalized predictions.

Altitude History

Loading altitude history...

Two-Line Element Set

1 53244U 22086C 26121.82590391 .00001421 00000-0 10732-3 0 9999
2 53244 53.2178 325.6626 0001392 89.6192 270.4959 15.08840536209261
Epoch: May 1, 2026 • Age: 8 hours

Current Status

Altitude 540.7 km
Velocity 7.60 km/s
Sub-Earth Point 28.71°N, 69.11°E
Launch Date Jul 24, 2022
Age 3.7 years
Type internet

Technical Details

Classification Payload
Mass 297.00 kg
Dry Mass 275.00 kg
Total Mass 297.00 kg
Length 0.20 m
Diameter 2.80 m
Span 9.00 m
Shape Box + pan
Manufacturer SPXS
Bus Type Starlink
Phase Status In Orbit
Owner/State SPXS/US

Most Searched